Weather History for KNXP - June, 2013

Change the Weather History Date:

Monday, June 17, 2013

  Actual Average Record
Temperature  
Mean Temperature 86 °F -  
Max Temperature 100 °F 95 °F 109 °F (2008)
Min Temperature 73 °F 70 °F 64 °F (2012)
Cooling Degree Days 22    
Growing Degree Days 36 (Base 50)    
Moisture  
Dew Point 24 °F    
Average Humidity 11    
Maximum Humidity 19    
Minimum Humidity 5    
Precipitation  
Precipitation 0.00 in - - ()
Sea Level Pressure  
Sea Level Pressure 29.85 in    
Wind  
Wind Speed 10 mph (NW)    
Max Wind Speed 21 mph    
Max Gust Speed 29 mph    
Visibility 10 miles    
Events      
Averages and records for this station are not official NWS values.
T = Trace of Precipitation, MM = Missing Value Source: NWS Daily Summary

Daily Weather History Graph

Daily Weather History Graph

Search for Another Location

Airport or City:

Trip Planner

Search our weather history database for the weather conditions in past years. The results will help you decide how hot, cold, wet, or windy it might be!

Date:

Astronomy

Jun. 17, 2013 Rise Set
Actual Time 5:32 AM PDT 7:59 PM PDT
Civil Twilight 5:03 AM PDT 8:28 PM PDT
Nautical Twilight 4:26 AM PDT 9:04 PM PDT
Astronomical Twilight 3:47 AM PDT 9:44 PM PDT
Moon 1:54 PM PDT (6/17) 12:56 AM PDT (6/17)
Length of Visible Light 15h 25m
Length of Day
14h 26m
First Quarter, 61% of the Moon is Illuminated
Jun 17
First Quarter
Jun 23
Full
Jun 29
Last Quarter
Jul 8
New
Jul 15
First Quarter

Hourly Weather History & Observations

Time (PDT) Temp. Dew Point Humidity Pressure Visibility Wind Dir Wind Speed Gust Speed Precip Events Conditions
12:56 AM 80.1 °F 24.1 °F 13% 29.88 in 10.0 mi WNW 20.7 mph 28.8 mph N/A   Clear
1:56 AM 78.1 °F 21.9 °F 12% 29.88 in 10.0 mi NW 10.4 mph - N/A   Clear
2:56 AM 78.1 °F 21.9 °F 12% 29.88 in 10.0 mi NNW 11.5 mph 18.4 mph N/A   Clear
3:56 AM 77.0 °F 21.9 °F 13% 29.88 in 10.0 mi North 6.9 mph - N/A   Clear
4:56 AM 75.9 °F 27.0 °F 16% 29.88 in 10.0 mi NNW 5.8 mph - N/A   Clear
5:56 AM 73.0 °F 28.0 °F 19% 29.90 in 10.0 mi NNW 4.6 mph - N/A   Clear
6:56 AM 75.0 °F 30.0 °F 19% 29.90 in 10.0 mi NNW 5.8 mph - N/A   Clear
7:56 AM 80.1 °F 28.9 °F 15% 29.91 in 10.0 mi NW 9.2 mph - N/A   Clear
8:56 AM 82.9 °F 28.0 °F 14% 29.92 in 10.0 mi NW 9.2 mph - N/A   Clear
9:56 AM 87.1 °F 25.0 °F 10% 29.91 in 10.0 mi NW 9.2 mph - N/A   Clear
10:56 AM 90.0 °F 23.0 °F 9% 29.90 in 10.0 mi Calm Calm - N/A   Clear
11:56 AM 93.0 °F 21.0 °F 7% 29.89 in 10.0 mi Calm Calm - N/A   Clear
12:56 PM 93.9 °F 19.0 °F 7% 29.87 in 10.0 mi Calm Calm - N/A   Clear
1:56 PM 97.0 °F 18.0 °F 6% 29.84 in 10.0 mi Variable 4.6 mph - N/A   Clear
2:56 PM 99.0 °F 18.0 °F 5% 29.82 in 10.0 mi East 6.9 mph - N/A   Clear
3:56 PM 98.1 °F 16.0 °F 5% 29.79 in 10.0 mi Variable 3.5 mph - N/A   Clear
4:56 PM 100.0 °F 16.0 °F 5% 29.77 in 10.0 mi North 4.6 mph - N/A   Clear
5:56 PM 99.0 °F 19.0 °F 6% 29.77 in 10.0 mi SSW 8.1 mph - N/A   Clear
6:56 PM 97.0 °F 21.9 °F 7% 29.76 in 10.0 mi SW 8.1 mph - N/A   Clear
7:56 PM 93.0 °F 28.0 °F 10% 29.76 in 10.0 mi SW 13.8 mph - N/A   Clear
8:56 PM 91.0 °F 33.1 °F 13% 29.78 in 10.0 mi WNW 16.1 mph - N/A   Clear
9:56 PM 87.1 °F 34.0 °F 15% 29.81 in 10.0 mi WNW 19.6 mph 24.2 mph N/A   Clear
10:56 PM 84.0 °F 32.0 °F 15% 29.81 in 10.0 mi West 19.6 mph 25.3 mph N/A   Clear
11:56 PM 82.0 °F 30.9 °F 16% 29.81 in 10.0 mi North 6.9 mph - N/A   Clear